Location: ?
(35.4064°N, 139.3593°E)
Time: 07:30:39
(UTC+00:00)

Tiangong - Pass Details

Date: 09 December 2025
Orbit: 378 x 393 km, 41.5° (Epoch: 18 January)

Event Time Altitude Azimuth Distance (km) Brightness Sun altitude
Exits shadow 20:25:05 35° 281° (WNW) 654 -1.5 -15.0°
Maximum altitude 20:26:16 70° 207° (SSW) 418 -2.1 -14.8°
Drops below altitude 10° 20:29:28 10° 123° (ESE) 1,426 2.0 -14.1°
Sets 20:31:34 0° 121° (ESE) 2,285 3.5 -13.7°
